Burnet, TX

1:52 AM CDT on June 24, 2017 (GMT -0500)
Burnet Municipal-Craddock

Weather History for KBMQ - October, 2010

Change the Weather History Date:

Monday, October 25, 2010

  Actual Average Record
Temperature  
Mean Temperature 74 °F -  
Max Temperature 84 °F 73 °F 87 °F (2014)
Min Temperature 64 °F 55 °F 34 °F (2005)
Cooling Degree Days 9    
Growing Degree Days 24 (Base 50)    
Moisture  
Dew Point 63 °F    
Average Humidity 69    
Maximum Humidity 93    
Minimum Humidity 43    
Precipitation  
Precipitation 0.00 in - - ()
Sea Level Pressure  
Sea Level Pressure 29.62 in    
Wind  
Wind Speed 8 mph (South)    
Max Wind Speed 20 mph    
Max Gust Speed 28 mph    
Visibility 8 miles    
Events      
Averages and records for this station are not official NWS values.
T = Trace of Precipitation, MM = Missing Value Source: NWS Daily Summary

Daily Weather History Graph

Daily Weather History Graph

Search for Another Location

Airport or City:

Trip Planner

Search our weather history database for the weather conditions in past years. The results will help you decide how hot, cold, wet, or windy it might be!

Date:

Astronomy

Oct. 25, 2010 Rise Set
Actual Time 7:42 AM CDT 6:51 PM CDT
Civil Twilight 7:17 AM CDT 7:15 PM CDT
Nautical Twilight 6:49 AM CDT 7:43 PM CDT
Astronomical Twilight 6:21 AM CDT 8:11 PM CDT
Moon 8:35 PM CDT (10/25) 10:12 AM CDT (10/25)
Length of Visible Light 11h 57m
Length of Day
11h 08m
Waning Gibbous, 93% of the Moon is Illuminated
Oct 25
Waning Gibbous
Oct 30
Last Quarter
Nov 5
New
Nov 13
First Quarter
Nov 21
Full

Hourly Weather History & Observations

Time (CDT) Temp. Heat Index Dew Point Humidity Pressure Visibility Wind Dir Wind Speed Gust Speed Precip Events Conditions
12:53 AM 70.0 °F - 63.0 °F 78% 29.77 in 9.0 mi South 5.8 mph - N/A   Clear
1:53 AM 69.1 °F - 63.0 °F 81% 29.76 in 8.0 mi South 6.9 mph - N/A   Clear
2:53 AM 70.0 °F - 64.0 °F 81% 29.75 in 9.0 mi South 6.9 mph - N/A   Clear
3:53 AM 68.0 °F - 63.0 °F 84% 29.73 in 8.0 mi Calm Calm - N/A   Clear
4:53 AM 66.0 °F - 62.1 °F 87% 29.72 in 7.0 mi Calm Calm - N/A   Clear
5:53 AM 64.9 °F - 61.0 °F 87% 29.71 in 6.0 mi Calm Calm - N/A   Clear
6:53 AM 64.0 °F - 62.1 °F 93% 29.71 in 6.0 mi SSW 3.5 mph - N/A   Clear
7:53 AM 64.0 °F - 62.1 °F 93% 29.70 in 4.0 mi Calm Calm - N/A   Clear
8:53 AM 66.9 °F - 64.0 °F 90% 29.70 in 6.0 mi South 9.2 mph - N/A   Clear
9:43 AM 69.8 °F - 64.4 °F 83% 29.75 in 6.0 mi South 10.4 mph 19.6 mph N/A   Haze
10:00 AM 71.6 °F - 64.4 °F 78% 29.75 in 7.0 mi South 11.5 mph 20.7 mph N/A   Scattered Clouds
10:53 AM 75.0 °F - 64.0 °F 69% 29.69 in 8.0 mi South 19.6 mph 24.2 mph N/A   Clear
11:53 AM 79.0 °F - 64.0 °F 60% 29.65 in 9.0 mi South 18.4 mph 27.6 mph N/A   Clear
12:53 PM 82.0 °F 83.4 °F 64.0 °F 54% 29.60 in 10.0 mi South 17.3 mph 26.5 mph N/A   Clear
2:53 PM 84.0 °F 84.0 °F 60.1 °F 44% 29.53 in 10.0 mi South 16.1 mph 26.5 mph N/A   Clear
3:53 PM 84.9 °F 84.8 °F 60.1 °F 43% 29.50 in 10.0 mi South 12.7 mph 26.5 mph N/A   Clear
4:53 PM 84.0 °F 84.5 °F 62.1 °F 47% 29.49 in 10.0 mi South 13.8 mph 27.6 mph N/A   Clear
5:53 PM 82.9 °F 83.7 °F 62.1 °F 49% 29.47 in 10.0 mi South 12.7 mph 20.7 mph N/A   Clear
6:53 PM 81.0 °F 81.7 °F 61.0 °F 50% 29.46 in 10.0 mi South 11.5 mph 19.6 mph N/A   Clear
7:53 PM 79.0 °F - 62.1 °F 56% 29.47 in 10.0 mi South 9.2 mph - N/A   Clear
8:53 PM 79.0 °F - 62.1 °F 56% 29.49 in 10.0 mi South 9.2 mph - N/A   Clear
9:53 PM 78.1 °F - 63.0 °F 60% 29.49 in 10.0 mi South 13.8 mph 20.7 mph N/A   Clear
10:53 PM 77.0 °F - 63.0 °F 62% 29.50 in 10.0 mi South 11.5 mph - N/A   Clear
11:53 PM 77.0 °F - 62.1 °F 60% 29.51 in 10.0 mi South 15.0 mph 19.6 mph N/A   Clear